Precipitable_Water
0.50 0.50 0.52 0.54 0.57 0.60 0.60 0.60 0.57 0.54 0.54 0.53 0.51 0.49 0.46 0.44 0.43 0.43 0.42 0.39 0.37 0.35 0.34 0.32 0.33 0.33 0.33 0.35 0.35 0.34 0.33 0.27 0.25 0.23 0.21 0.23 0.26 0.30 0.30 0.31 0.28 0.27 0.25 0.20 0.17 0.17 0.17 0.20 0.21 0.23 0.24 0.27 0.27 0.29 0.32 0.33 0.38 0.36 0.27 0.23 0.18 0.20 0.19 0.24 0.23 0.25 0.29 0.26 0.29 0.30 0.33 0.32 0.30 0.39 0.45 0.48 0.46 0.44 0.42 0.37 0.39 0.42 0.40 0.40 0.40 0.40 0.43 0.46
0.52 0.52 0.51 0.51 0.54 0.57 0.55 0.52 0.53 0.52 0.51 0.49 0.47 0.46 0.45 0.44 0.42 0.40 0.36 0.33 0.31 0.30 0.31 0.31 0.31 0.30 0.31 0.31 0.31 0.33 0.28 0.23 0.20 0.20 0.21 0.27 0.29 0.30 0.31 0.30 0.28 0.26 0.27 0.19 0.16 0.17 0.18 0.19 0.21 0.22 0.22 0.22 0.26 0.27 0.32 0.28 0.36 0.28 0.25 0.23 0.15 0.20 0.22 0.28 0.29 0.31 0.28 0.29 0.31 0.31 0.34 0.34 0.33 0.36 0.42 0.36 0.36 0.36 0.32 0.33 0.35 0.35 0.38 0.41 0.41 0.42 0.42 0.44
0.56 0.55 0.53 0.52 0.54 0.53 0.50 0.48 0.48 0.49 0.48 0.46 0.44 0.43 0.43 0.41 0.38 0.35 0.32 0.31 0.31 0.30 0.30 0.30 0.31 0.31 0.30 0.30 0.29 0.29 0.22 0.17 0.17 0.17 0.24 0.30 0.29 0.30 0.32 0.32 0.29 0.26 0.24 0.20 0.19 0.18 0.19 0.21 0.22 0.21 0.22 0.21 0.23 0.23 0.28 0.27 0.30 0.31 0.25 0.19 0.19 0.25 0.27 0.30 0.31 0.31 0.33 0.32 0.29 0.29 0.32 0.32 0.36 0.34 0.38 0.30 0.30 0.30 0.27 0.26 0.27 0.27 0.28 0.31 0.35 0.38 0.39 0.41
0.55 0.56 0.55 0.53 0.53 0.51 0.50 0.48 0.46 0.45 0.43 0.41 0.39 0.38 0.38 0.37 0.35 0.32 0.31 0.30 0.30 0.31 0.31 0.31 0.31 0.30 0.31 0.30 0.30 0.30 0.21 0.14 0.15 0.21 0.26 0.30 0.33 0.32 0.32 0.33 0.31 0.27 0.27 0.25 0.22 0.19 0.22 0.22 0.22 0.21 0.20 0.20 0.21 0.24 0.22 0.26 0.23 0.26 0.24 0.18 0.20 0.26 0.25 0.28 0.31 0.31 0.31 0.30 0.27 0.26 0.28 0.27 0.32 0.32 0.31 0.29 0.26 0.26 0.26 0.27 0.25 0.24 0.24 0.26 0.31 0.33 0.35 0.36
0.51 0.52 0.51 0.50 0.50 0.50 0.47 0.44 0.42 0.40 0.38 0.37 0.37 0.37 0.38 0.37 0.35 0.32 0.31 0.30 0.31 0.31 0.32 0.32 0.32 0.30 0.30 0.30 0.28 0.27 0.19 0.14 0.17 0.24 0.29 0.33 0.33 0.35 0.35 0.35 0.33 0.28 0.27 0.25 0.23 0.21 0.20 0.21 0.21 0.20 0.19 0.18 0.20 0.20 0.20 0.23 0.26 0.24 0.20 0.24 0.25 0.26 0.23 0.26 0.26 0.26 0.25 0.26 0.25 0.25 0.22 0.21 0.28 0.27 0.26 0.25 0.21 0.21 0.24 0.25 0.26 0.25 0.25 0.25 0.27 0.31 0.34 0.35
0.46 0.45 0.44 0.44 0.43 0.41 0.40 0.38 0.37 0.37 0.36 0.37 0.38 0.39 0.38 0.36 0.36 0.35 0.34 0.33 0.32 0.32 0.32 0.33 0.34 0.32 0.31 0.30 0.26 0.23 0.17 0.11 0.22 0.21 0.28 0.28 0.29 0.33 0.32 0.31 0.30 0.29 0.27 0.23 0.21 0.20 0.17 0.18 0.19 0.17 0.17 0.17 0.17 0.17 0.20 0.22 0.24 0.18 0.21 0.22 0.24 0.24 0.21 0.22 0.21 0.21 0.21 0.20 0.20 0.19 0.22 0.24 0.22 0.21 0.22 0.21 0.19 0.21 0.23 0.23 0.24 0.25 0.27 0.27 0.31 0.33 0.33 0.34
0.42 0.42 0.41 0.40 0.40 0.39 0.38 0.37 0.35 0.35 0.36 0.38 0.38 0.37 0.36 0.35 0.36 0.37 0.36 0.35 0.34 0.33 0.32 0.32 0.32 0.32 0.30 0.29 0.24 0.20 0.15 0.14 0.20 0.24 0.25 0.28 0.28 0.29 0.29 0.28 0.27 0.24 0.23 0.19 0.18 0.16 0.16 0.15 0.16 0.16 0.16 0.16 0.17 0.17 0.19 0.20 0.23 0.20 0.17 0.20 0.20 0.22 0.20 0.22 0.21 0.22 0.21 0.20 0.19 0.21 0.23 0.19 0.19 0.17 0.21 0.19 0.21 0.22 0.24 0.25 0.26 0.27 0.28 0.30 0.29 0.32 0.34 0.36
0.40 0.41 0.40 0.39 0.38 0.37 0.36 0.35 0.36 0.37 0.38 0.37 0.36 0.35 0.34 0.35 0.36 0.37 0.37 0.37 0.37 0.35 0.34 0.32 0.33 0.31 0.27 0.21 0.16 0.14 0.14 0.14 0.22 0.25 0.25 0.28 0.26 0.26 0.25 0.24 0.24 0.23 0.21 0.19 0.18 0.15 0.15 0.13 0.12 0.15 0.13 0.12 0.14 0.14 0.17 0.17 0.18 0.16 0.15 0.18 0.19 0.20 0.21 0.21 0.22 0.22 0.21 0.21 0.21 0.21 0.19 0.19 0.20 0.19 0.20 0.19 0.21 0.23 0.25 0.27 0.28 0.29 0.29 0.29 0.30 0.32 0.36 0.38
0.38 0.38 0.39 0.39 0.38 0.37 0.36 0.36 0.37 0.37 0.36 0.35 0.34 0.34 0.34 0.35 0.36 0.37 0.38 0.38 0.39 0.38 0.36 0.35 0.33 0.32 0.29 0.21 0.16 0.13 0.13 0.20 0.23 0.25 0.26 0.26 0.25 0.25 0.23 0.20 0.23 0.20 0.19 0.20 0.20 0.18 0.15 0.14 0.14 0.14 0.11 0.12 0.15 0.13 0.15 0.13 0.11 0.15 0.15 0.17 0.17 0.18 0.20 0.21 0.21 0.21 0.21 0.21 0.22 0.20 0.19 0.19 0.20 0.20 0.18 0.20 0.22 0.25 0.26 0.26 0.27 0.28 0.27 0.29 0.31 0.33 0.35 0.37
0.36 0.36 0.36 0.35 0.35 0.36 0.36 0.37 0.37 0.36 0.36 0.36 0.36 0.37 0.36 0.36 0.36 0.37 0.38 0.38 0.39 0.39 0.38 0.38 0.37 0.32 0.25 0.20 0.18 0.13 0.18 0.23 0.26 0.28 0.29 0.28 0.27 0.25 0.23 0.22 0.22 0.20 0.18 0.19 0.19 0.18 0.16 0.15 0.15 0.17 0.17 0.15 0.17 0.14 0.17 0.15 0.13 0.20 0.18 0.18 0.18 0.18 0.19 0.20 0.18 0.18 0.19 0.19 0.20 0.18 0.18 0.19 0.21 0.18 0.15 0.22 0.24 0.26 0.25 0.25 0.27 0.26 0.26 0.28 0.30 0.32 0.34 0.35
0.36 0.35 0.33 0.33 0.33 0.34 0.35 0.36 0.37 0.37 0.37 0.38 0.38 0.39 0.39 0.39 0.38 0.38 0.39 0.38 0.38 0.40 0.40 0.39 0.38 0.34 0.25 0.23 0.18 0.15 0.24 0.27 0.29 0.30 0.29 0.29 0.27 0.24 0.22 0.23 0.25 0.22 0.22 0.21 0.21 0.21 0.21 0.19 0.19 0.18 0.17 0.14 0.18 0.16 0.17 0.17 0.21 0.19 0.18 0.18 0.18 0.18 0.18 0.19 0.18 0.18 0.19 0.18 0.19 0.18 0.18 0.19 0.21 0.20 0.18 0.22 0.26 0.27 0.25 0.25 0.26 0.26 0.27 0.28 0.29 0.30 0.32 0.33
0.35 0.34 0.33 0.33 0.33 0.33 0.33 0.33 0.33 0.34 0.34 0.34 0.35 0.34 0.35 0.36 0.37 0.37 0.38 0.39 0.41 0.44 0.42 0.40 0.36 0.30 0.28 0.23 0.19 0.18 0.27 0.29 0.30 0.30 0.31 0.30 0.27 0.27 0.27 0.27 0.26 0.24 0.23 0.20 0.22 0.24 0.25 0.24 0.22 0.19 0.14 0.21 0.14 0.18 0.17 0.23 0.20 0.19 0.19 0.15 0.17 0.19 0.17 0.18 0.16 0.17 0.18 0.17 0.19 0.20 0.17 0.17 0.18 0.17 0.23 0.25 0.27 0.27 0.25 0.25 0.25 0.26 0.27 0.28 0.29 0.30 0.30 0.32
0.38 0.37 0.35 0.35 0.35 0.35 0.35 0.34 0.35 0.35 0.35 0.35 0.35 0.35 0.36 0.36 0.36 0.37 0.39 0.41 0.45 0.44 0.42 0.42 0.33 0.29 0.23 0.17 0.20 0.28 0.32 0.32 0.31 0.31 0.31 0.32 0.30 0.31 0.30 0.29 0.28 0.28 0.27 0.23 0.21 0.23 0.25 0.24 0.23 0.20 0.21 0.20 0.19 0.15 0.23 0.25 0.22 0.22 0.20 0.17 0.15 0.15 0.14 0.18 0.20 0.20 0.20 0.20 0.22 0.21 0.13 0.17 0.19 0.23 0.25 0.28 0.28 0.27 0.26 0.25 0.25 0.25 0.26 0.27 0.28 0.28 0.30 0.31
0.43 0.41 0.39 0.40 0.40 0.40 0.39 0.39 0.39 0.40 0.39 0.40 0.40 0.40 0.41 0.42 0.40 0.40 0.41 0.41 0.42 0.41 0.43 0.38 0.32 0.28 0.21 0.17 0.24 0.28 0.31 0.32 0.31 0.31 0.32 0.34 0.31 0.29 0.30 0.31 0.30 0.29 0.29 0.26 0.25 0.25 0.25 0.26 0.23 0.21 0.25 0.19 0.17 0.27 0.21 0.19 0.21 0.15 0.17 0.17 0.13 0.12 0.12 0.19 0.20 0.21 0.19 0.22 0.22 0.21 0.14 0.17 0.22 0.25 0.28 0.29 0.29 0.27 0.25 0.25 0.26 0.26 0.27 0.28 0.29 0.29 0.30 0.32
0.47 0.45 0.43 0.44 0.43 0.42 0.41 0.42 0.42 0.42 0.42 0.42 0.44 0.44 0.45 0.45 0.45 0.45 0.46 0.40 0.38 0.40 0.39 0.35 0.31 0.25 0.19 0.20 0.30 0.29 0.29 0.28 0.26 0.27 0.31 0.29 0.27 0.25 0.25 0.26 0.25 0.26 0.27 0.26 0.24 0.26 0.27 0.26 0.24 0.19 0.17 0.23 0.21 0.17 0.15 0.15 0.16 0.16 0.12 0.11 0.14 0.12 0.15 0.18 0.21 0.20 0.17 0.21 0.24 0.20 0.16 0.18 0.22 0.25 0.28 0.29 0.28 0.27 0.25 0.26 0.26 0.27 0.27 0.28 0.28 0.29 0.29 0.30
0.47 0.45 0.44 0.45 0.44 0.42 0.41 0.42 0.43 0.42 0.43 0.44 0.45 0.46 0.48 0.49 0.48 0.47 0.47 0.41 0.39 0.38 0.37 0.28 0.29 0.25 0.20 0.17 0.22 0.30 0.27 0.22 0.23 0.26 0.27 0.26 0.24 0.21 0.24 0.23 0.24 0.24 0.24 0.23 0.27 0.27 0.27 0.25 0.20 0.20 0.19 0.21 0.17 0.15 0.13 0.12 0.13 0.14 0.12 0.11 0.11 0.13 0.14 0.16 0.22 0.23 0.24 0.22 0.24 0.21 0.17 0.19 0.21 0.26 0.28 0.29 0.27 0.26 0.25 0.25 0.25 0.26 0.27 0.27 0.28 0.28 0.28 0.29
0.45 0.44 0.44 0.44 0.42 0.41 0.41 0.42 0.43 0.43 0.44 0.45 0.47 0.48 0.49 0.49 0.48 0.45 0.41 0.42 0.43 0.41 0.30 0.25 0.28 0.26 0.14 0.23 0.29 0.23 0.20 0.22 0.25 0.25 0.25 0.27 0.25 0.24 0.23 0.21 0.20 0.20 0.21 0.23 0.24 0.24 0.24 0.20 0.24 0.21 0.22 0.17 0.17 0.15 0.11 0.11 0.10 0.11 0.14 0.11 0.13 0.12 0.15 0.14 0.21 0.24 0.23 0.22 0.20 0.23 0.20 0.22 0.24 0.26 0.27 0.27 0.26 0.25 0.24 0.24 0.24 0.24 0.25 0.26 0.26 0.26 0.26 0.27
0.44 0.44 0.43 0.42 0.41 0.42 0.43 0.44 0.44 0.45 0.46 0.46 0.47 0.47 0.44 0.46 0.46 0.43 0.41 0.41 0.41 0.35 0.31 0.31 0.26 0.19 0.17 0.24 0.18 0.18 0.23 0.23 0.24 0.25 0.26 0.28 0.28 0.27 0.24 0.21 0.22 0.20 0.19 0.18 0.21 0.18 0.20 0.16 0.20 0.14 0.16 0.16 0.15 0.13 0.10 0.08 0.09 0.10 0.11 0.11 0.12 0.15 0.16 0.15 0.16 0.20 0.23 0.23 0.21 0.22 0.21 0.22 0.24 0.25 0.26 0.26 0.27 0.25 0.24 0.24 0.24 0.24 0.24 0.25 0.25 0.26 0.27 0.27
0.43 0.43 0.42 0.41 0.43 0.44 0.44 0.45 0.45 0.46 0.46 0.46 0.46 0.47 0.47 0.45 0.40 0.40 0.34 0.32 0.25 0.21 0.19 0.18 0.19 0.12 0.10 0.18 0.23 0.23 0.23 0.24 0.25 0.25 0.23 0.25 0.26 0.26 0.26 0.26 0.23 0.19 0.16 0.15 0.15 0.17 0.19 0.17 0.17 0.14 0.11 0.12 0.13 0.13 0.12 0.12 0.13 0.12 0.12 0.12 0.13 0.13 0.15 0.16 0.20 0.23 0.22 0.20 0.19 0.19 0.18 0.20 0.22 0.23 0.24 0.25 0.26 0.25 0.24 0.24 0.24 0.24 0.24 0.24 0.25 0.25 0.26 0.27
0.45 0.43 0.42 0.42 0.44 0.44 0.44 0.45 0.46 0.47 0.46 0.38 0.35 0.37 0.36 0.28 0.26 0.25 0.28 0.26 0.23 0.21 0.21 0.25 0.27 0.25 0.24 0.22 0.21 0.25 0.28 0.26 0.20 0.22 0.24 0.26 0.24 0.23 0.22 0.23 0.21 0.19 0.16 0.13 0.16 0.17 0.20 0.12 0.11 0.10 0.11 0.13 0.14 0.15 0.15 0.15 0.15 0.15 0.15 0.15 0.15 0.15 0.16 0.20 0.20 0.23 0.25 0.21 0.20 0.20 0.20 0.20 0.21 0.21 0.23 0.24 0.24 0.24 0.24 0.24 0.24 0.24 0.24 0.25 0.25 0.25 0.26 0.27
0.47 0.47 0.45 0.45 0.46 0.45 0.46 0.46 0.46 0.47 0.46 0.37 0.34 0.28 0.24 0.25 0.23 0.21 0.22 0.22 0.25 0.27 0.27 0.28 0.28 0.25 0.22 0.24 0.25 0.24 0.20 0.20 0.22 0.21 0.23 0.27 0.24 0.20 0.18 0.20 0.17 0.14 0.15 0.17 0.14 0.21 0.18 0.12 0.11 0.13 0.15 0.16 0.17 0.18 0.17 0.17 0.17 0.15 0.15 0.15 0.14 0.16 0.15 0.18 0.19 0.23 0.25 0.19 0.18 0.20 0.19 0.19 0.20 0.22 0.23 0.25 0.24 0.23 0.23 0.23 0.24 0.24 0.25 0.25 0.25 0.25 0.25 0.26
0.46 0.46 0.48 0.47 0.47 0.46 0.47 0.46 0.46 0.48 0.43 0.39 0.34 0.28 0.28 0.30 0.35 0.31 0.25 0.17 0.23 0.28 0.32 0.32 0.33 0.26 0.29 0.27 0.28 0.28 0.24 0.18 0.19 0.22 0.26 0.27 0.21 0.16 0.17 0.16 0.14 0.11 0.16 0.17 0.16 0.14 0.12 0.10 0.13 0.16 0.19 0.20 0.19 0.19 0.20 0.18 0.17 0.17 0.16 0.15 0.15 0.15 0.18 0.20 0.20 0.22 0.23 0.20 0.18 0.20 0.18 0.19 0.21 0.22 0.24 0.24 0.24 0.24 0.25 0.24 0.24 0.24 0.24 0.24 0.25 0.25 0.25 0.26
0.46 0.45 0.46 0.48 0.48 0.48 0.47 0.47 0.48 0.48 0.40 0.35 0.31 0.33 0.30 0.40 0.46 0.43 0.33 0.23 0.19 0.28 0.31 0.30 0.26 0.25 0.25 0.29 0.29 0.29 0.19 0.17 0.16 0.21 0.23 0.25 0.20 0.18 0.17 0.14 0.14 0.14 0.14 0.15 0.11 0.10 0.09 0.11 0.16 0.20 0.20 0.19 0.18 0.19 0.18 0.17 0.17 0.16 0.15 0.14 0.13 0.16 0.15 0.13 0.19 0.22 0.23 0.21 0.19 0.20 0.18 0.19 0.21 0.23 0.23 0.24 0.23 0.23 0.25 0.25 0.24 0.25 0.24 0.24 0.25 0.26 0.26 0.26
0.48 0.46 0.46 0.46 0.47 0.47 0.47 0.44 0.48 0.45 0.40 0.39 0.35 0.33 0.44 0.49 0.47 0.40 0.28 0.18 0.17 0.26 0.31 0.30 0.28 0.25 0.25 0.23 0.27 0.24 0.19 0.18 0.20 0.17 0.27 0.24 0.18 0.20 0.17 0.16 0.14 0.14 0.12 0.15 0.14 0.12 0.11 0.15 0.20 0.20 0.20 0.18 0.16 0.17 0.17 0.16 0.14 0.17 0.16 0.16 0.15 0.16 0.17 0.16 0.17 0.20 0.22 0.22 0.22 0.20 0.18 0.17 0.19 0.19 0.20 0.22 0.23 0.23 0.23 0.24 0.24 0.25 0.25 0.26 0.27 0.27 0.27 0.26
0.50 0.49 0.47 0.46 0.46 0.47 0.44 0.47 0.38 0.40 0.46 0.39 0.35 0.44 0.46 0.49 0.47 0.41 0.27 0.21 0.22 0.23 0.35 0.32 0.30 0.29 0.27 0.33 0.30 0.20 0.20 0.22 0.21 0.24 0.25 0.24 0.20 0.18 0.17 0.20 0.16 0.12 0.13 0.17 0.16 0.14 0.14 0.18 0.20 0.17 0.17 0.18 0.17 0.15 0.16 0.16 0.13 0.14 0.16 0.16 0.16 0.16 0.16 0.17 0.18 0.17 0.16 0.16 0.18 0.17 0.12 0.12 0.16 0.18 0.18 0.20 0.21 0.20 0.22 0.21 0.22 0.23 0.24 0.25 0.25 0.25 0.26 0.27
0.50 0.50 0.48 0.47 0.46 0.44 0.45 0.34 0.36 0.43 0.41 0.32 0.35 0.46 0.45 0.43 0.53 0.42 0.25 0.17 0.15 0.21 0.27 0.20 0.33 0.24 0.32 0.22 0.24 0.21 0.21 0.16 0.22 0.25 0.26 0.26 0.29 0.20 0.18 0.14 0.16 0.10 0.14 0.14 0.13 0.12 0.13 0.18 0.18 0.16 0.16 0.15 0.15 0.14 0.15 0.16 0.12 0.11 0.12 0.18 0.18 0.17 0.17 0.17 0.16 0.16 0.12 0.10 0.15 0.19 0.11 0.10 0.15 0.15 0.17 0.19 0.19 0.19 0.21 0.21 0.22 0.23 0.24 0.25 0.25 0.25 0.26 0.26
0.51 0.49 0.48 0.47 0.46 0.44 0.31 0.29 0.44 0.41 0.28 0.31 0.42 0.44 0.43 0.43 0.47 0.41 0.21 0.13 0.12 0.21 0.18 0.25 0.26 0.25 0.28 0.21 0.20 0.20 0.09 0.11 0.21 0.25 0.23 0.26 0.18 0.26 0.12 0.11 0.14 0.18 0.18 0.17 0.10 0.09 0.15 0.15 0.16 0.16 0.15 0.14 0.13 0.12 0.15 0.16 0.13 0.11 0.18 0.19 0.18 0.17 0.16 0.16 0.16 0.15 0.14 0.17 0.18 0.18 0.16 0.11 0.11 0.14 0.18 0.19 0.18 0.18 0.19 0.20 0.22 0.23 0.24 0.24 0.25 0.26 0.26 0.27
0.49 0.49 0.47 0.47 0.45 0.44 0.36 0.39 0.35 0.31 0.30 0.36 0.43 0.40 0.41 0.43 0.44 0.40 0.16 0.09 0.09 0.23 0.18 0.21 0.23 0.30 0.20 0.21 0.20 0.15 0.14 0.18 0.12 0.16 0.22 0.23 0.21 0.17 0.14 0.12 0.12 0.12 0.15 0.15 0.07 0.13 0.16 0.15 0.16 0.14 0.14 0.13 0.13 0.15 0.17 0.19 0.14 0.14 0.19 0.20 0.18 0.18 0.17 0.17 0.16 0.15 0.16 0.14 0.11 0.15 0.17 0.12 0.11 0.15 0.18 0.18 0.16 0.17 0.18 0.20 0.21 0.23 0.24 0.25 0.26 0.27 0.27 0.28
0.48 0.47 0.46 0.45 0.45 0.46 0.44 0.38 0.35 0.30 0.35 0.38 0.38 0.39 0.37 0.40 0.35 0.19 0.11 0.08 0.15 0.17 0.31 0.17 0.28 0.18 0.16 0.22 0.15 0.16 0.16 0.16 0.09 0.15 0.21 0.24 0.21 0.17 0.12 0.14 0.16 0.16 0.17 0.15 0.11 0.14 0.18 0.17 0.17 0.17 0.15 0.14 0.18 0.19 0.19 0.19 0.14 0.18 0.21 0.21 0.19 0.19 0.18 0.17 0.15 0.14 0.14 0.12 0.08 0.11 0.14 0.10 0.10 0.15 0.16 0.18 0.17 0.17 0.18 0.20 0.22 0.23 0.25 0.25 0.26 0.27 0.28 0.28
0.46 0.45 0.47 0.47 0.44 0.41 0.40 0.45 0.34 0.36 0.37 0.36 0.35 0.35 0.37 0.33 0.21 0.11 0.08 0.07 0.15 0.09 0.16 0.15 0.11 0.09 0.15 0.12 0.13 0.14 0.12 0.12 0.15 0.17 0.18 0.15 0.17 0.21 0.21 0.24 0.18 0.14 0.13 0.15 0.16 0.16 0.17 0.23 0.25 0.20 0.18 0.18 0.18 0.19 0.20 0.19 0.20 0.22 0.20 0.17 0.17 0.16 0.16 0.16 0.15 0.14 0.13 0.09 0.09 0.13 0.15 0.14 0.10 0.14 0.16 0.16 0.17 0.19 0.20 0.21 0.22 0.24 0.25 0.26 0.27 0.27 0.27 0.28
0.48 0.50 0.50 0.50 0.37 0.39 0.37 0.30 0.30 0.35 0.33 0.35 0.36 0.33 0.30 0.19 0.10 0.08 0.06 0.08 0.12 0.12 0.12 0.11 0.08 0.14 0.11 0.10 0.09 0.12 0.12 0.13 0.13 0.16 0.13 0.17 0.14 0.16 0.17 0.20 0.18 0.15 0.13 0.12 0.14 0.13 0.17 0.20 0.20 0.22 0.27 0.21 0.22 0.18 0.22 0.23 0.22 0.20 0.17 0.15 0.13 0.13 0.14 0.14 0.13 0.16 0.10 0.09 0.13 0.16 0.16 0.17 0.11 0.14 0.18 0.21 0.23 0.22 0.21 0.20 0.21 0.22 0.24 0.25 0.27 0.27 0.28 0.28
0.51 0.54 0.53 0.47 0.45 0.46 0.28 0.22 0.27 0.33 0.31 0.34 0.34 0.26 0.15 0.07 0.11 0.06 0.05 0.14 0.06 0.08 0.07 0.08 0.11 0.11 0.12 0.15 0.11 0.10 0.10 0.12 0.14 0.15 0.13 0.14 0.13 0.13 0.14 0.12 0.14 0.09 0.08 0.09 0.08 0.11 0.13 0.14 0.20 0.22 0.24 0.19 0.17 0.15 0.16 0.18 0.19 0.18 0.16 0.14 0.10 0.09 0.10 0.09 0.12 0.09 0.10 0.09 0.14 0.17 0.17 0.15 0.14 0.17 0.19 0.21 0.22 0.22 0.23 0.23 0.23 0.24 0.26 0.27 0.28 0.29 0.30 0.30
0.52 0.54 0.52 0.46 0.44 0.33 0.30 0.31 0.32 0.29 0.32 0.34 0.25 0.15 0.09 0.05 0.04 0.06 0.07 0.08 0.05 0.10 0.08 0.14 0.11 0.12 0.12 0.12 0.10 0.11 0.15 0.10 0.14 0.14 0.17 0.16 0.15 0.16 0.18 0.16 0.16 0.12 0.07 0.09 0.09 0.09 0.10 0.16 0.18 0.17 0.19 0.21 0.18 0.13 0.13 0.13 0.16 0.15 0.14 0.13 0.11 0.09 0.08 0.07 0.08 0.09 0.09 0.11 0.14 0.15 0.17 0.13 0.16 0.18 0.21 0.21 0.24 0.25 0.25 0.26 0.27 0.27 0.27 0.28 0.29 0.30 0.31 0.31
0.52 0.52 0.41 0.41 0.37 0.33 0.32 0.33 0.31 0.31 0.30 0.30 0.17 0.10 0.06 0.04 0.04 0.11 0.07 0.08 0.07 0.14 0.13 0.11 0.12 0.13 0.12 0.09 0.10 0.13 0.09 0.13 0.13 0.14 0.16 0.14 0.16 0.13 0.15 0.17 0.16 0.13 0.12 0.11 0.09 0.10 0.08 0.08 0.12 0.15 0.13 0.20 0.18 0.17 0.16 0.15 0.16 0.15 0.17 0.15 0.12 0.10 0.09 0.07 0.08 0.07 0.08 0.09 0.12 0.16 0.13 0.12 0.13 0.16 0.24 0.25 0.26 0.27 0.28 0.28 0.29 0.29 0.29 0.30 0.31 0.31 0.31 0.30
0.48 0.45 0.38 0.35 0.31 0.32 0.33 0.32 0.31 0.33 0.29 0.21 0.10 0.07 0.04 0.04 0.07 0.06 0.07 0.09 0.11 0.12 0.11 0.15 0.11 0.10 0.09 0.11 0.13 0.14 0.12 0.10 0.14 0.14 0.14 0.14 0.13 0.14 0.13 0.15 0.16 0.16 0.15 0.10 0.11 0.11 0.10 0.09 0.12 0.17 0.17 0.19 0.16 0.20 0.20 0.18 0.15 0.17 0.17 0.17 0.13 0.12 0.15 0.10 0.11 0.11 0.11 0.12 0.12 0.15 0.15 0.18 0.18 0.24 0.26 0.27 0.28 0.28 0.29 0.29 0.30 0.29 0.30 0.30 0.30 0.29 0.29 0.29
0.39 0.32 0.31 0.22 0.23 0.26 0.34 0.35 0.33 0.32 0.23 0.13 0.07 0.05 0.05 0.07 0.06 0.09 0.09 0.15 0.14 0.11 0.11 0.12 0.11 0.09 0.09 0.10 0.12 0.12 0.16 0.12 0.14 0.14 0.14 0.15 0.16 0.13 0.16 0.17 0.16 0.17 0.13 0.10 0.12 0.09 0.10 0.08 0.14 0.15 0.19 0.18 0.18 0.20 0.19 0.21 0.10 0.15 0.16 0.13 0.16 0.20 0.18 0.15 0.15 0.16 0.16 0.14 0.12 0.17 0.16 0.19 0.24 0.25 0.26 0.27 0.27 0.27 0.29 0.29 0.30 0.29 0.29 0.28 0.28 0.28 0.28 0.28
0.26 0.24 0.17 0.20 0.21 0.27 0.32 0.37 0.32 0.25 0.18 0.10 0.06 0.06 0.10 0.11 0.13 0.12 0.15 0.12 0.14 0.16 0.12 0.08 0.09 0.09 0.09 0.09 0.10 0.12 0.14 0.15 0.14 0.13 0.11 0.15 0.13 0.16 0.15 0.16 0.20 0.18 0.19 0.16 0.11 0.14 0.10 0.09 0.14 0.15 0.15 0.19 0.21 0.21 0.21 0.21 0.21 0.18 0.14 0.17 0.22 0.23 0.21 0.17 0.13 0.14 0.14 0.12 0.13 0.17 0.16 0.17 0.19 0.17 0.25 0.25 0.25 0.26 0.27 0.28 0.29 0.28 0.28 0.26 0.26 0.25 0.25 0.25
0.21 0.22 0.21 0.17 0.22 0.29 0.33 0.36 0.29 0.20 0.13 0.09 0.08 0.10 0.15 0.11 0.17 0.16 0.19 0.17 0.17 0.16 0.11 0.10 0.10 0.12 0.10 0.10 0.10 0.13 0.14 0.11 0.12 0.12 0.10 0.13 0.11 0.20 0.16 0.15 0.20 0.19 0.20 0.22 0.14 0.15 0.17 0.10 0.13 0.15 0.17 0.19 0.20 0.21 0.19 0.22 0.24 0.20 0.19 0.26 0.18 0.16 0.15 0.19 0.18 0.13 0.13 0.13 0.14 0.16 0.18 0.18 0.20 0.19 0.23 0.23 0.24 0.24 0.25 0.25 0.26 0.25 0.25 0.24 0.24 0.23 0.25 0.24
0.23 0.20 0.14 0.17 0.28 0.29 0.33 0.32 0.19 0.15 0.10 0.09 0.10 0.09 0.15 0.15 0.20 0.17 0.19 0.21 0.19 0.14 0.11 0.12 0.11 0.13 0.13 0.11 0.12 0.14 0.14 0.10 0.13 0.12 0.10 0.12 0.10 0.18 0.17 0.19 0.17 0.21 0.22 0.21 0.17 0.18 0.18 0.11 0.11 0.18 0.17 0.19 0.20 0.20 0.15 0.19 0.25 0.26 0.27 0.24 0.27 0.23 0.20 0.18 0.19 0.19 0.18 0.15 0.15 0.15 0.17 0.16 0.21 0.22 0.22 0.21 0.22 0.22 0.23 0.23 0.23 0.23 0.24 0.23 0.23 0.22 0.23 0.22
0.18 0.15 0.13 0.22 0.25 0.31 0.30 0.22 0.14 0.12 0.10 0.09 0.10 0.11 0.16 0.13 0.19 0.21 0.23 0.21 0.16 0.14 0.13 0.13 0.15 0.12 0.13 0.13 0.14 0.12 0.14 0.14 0.14 0.13 0.13 0.14 0.13 0.21 0.17 0.22 0.18 0.19 0.22 0.23 0.19 0.22 0.17 0.18 0.12 0.17 0.21 0.21 0.18 0.22 0.20 0.22 0.21 0.23 0.23 0.22 0.24 0.24 0.26 0.24 0.23 0.20 0.17 0.16 0.15 0.14 0.12 0.15 0.19 0.22 0.21 0.21 0.22 0.22 0.22 0.22 0.22 0.22 0.23 0.23 0.22 0.21 0.21 0.20
0.22 0.13 0.15 0.23 0.25 0.32 0.27 0.15 0.12 0.12 0.12 0.14 0.15 0.13 0.16 0.15 0.19 0.19 0.23 0.25 0.20 0.23 0.16 0.15 0.14 0.12 0.13 0.12 0.12 0.16 0.14 0.15 0.15 0.13 0.14 0.14 0.15 0.12 0.21 0.21 0.23 0.20 0.24 0.22 0.22 0.24 0.19 0.20 0.16 0.18 0.19 0.19 0.20 0.25 0.25 0.25 0.25 0.24 0.23 0.22 0.23 0.21 0.19 0.17 0.15 0.21 0.19 0.16 0.13 0.11 0.10 0.14 0.19 0.23 0.22 0.22 0.23 0.23 0.23 0.22 0.22 0.22 0.22 0.21 0.20 0.20 0.18 0.16
0.14 0.11 0.13 0.23 0.25 0.31 0.18 0.12 0.14 0.16 0.13 0.12 0.12 0.16 0.15 0.24 0.18 0.18 0.20 0.22 0.21 0.17 0.22 0.17 0.17 0.15 0.15 0.15 0.15 0.16 0.16 0.15 0.15 0.14 0.15 0.14 0.19 0.18 0.21 0.27 0.26 0.27 0.24 0.21 0.23 0.28 0.26 0.23 0.20 0.18 0.19 0.20 0.23 0.26 0.28 0.28 0.27 0.25 0.24 0.22 0.23 0.21 0.20 0.16 0.11 0.12 0.15 0.15 0.15 0.14 0.12 0.12 0.21 0.22 0.23 0.22 0.22 0.22 0.22 0.21 0.20 0.20 0.19 0.17 0.16 0.16 0.15 0.13
0.15 0.14 0.20 0.23 0.26 0.20 0.15 0.12 0.15 0.15 0.14 0.17 0.21 0.20 0.22 0.19 0.18 0.19 0.17 0.18 0.15 0.18 0.17 0.16 0.16 0.15 0.17 0.17 0.16 0.16 0.17 0.14 0.16 0.15 0.17 0.19 0.21 0.24 0.27 0.29 0.31 0.29 0.30 0.26 0.26 0.27 0.29 0.21 0.18 0.19 0.20 0.22 0.24 0.26 0.27 0.27 0.25 0.22 0.21 0.21 0.19 0.16 0.16 0.14 0.14 0.14 0.12 0.13 0.12 0.13 0.11 0.14 0.20 0.22 0.21 0.21 0.21 0.20 0.20 0.19 0.17 0.17 0.16 0.16 0.15 0.15 0.13 0.12
0.17 0.16 0.17 0.22 0.25 0.21 0.13 0.10 0.10 0.13 0.15 0.18 0.17 0.17 0.21 0.19 0.18 0.16 0.15 0.17 0.16 0.16 0.16 0.16 0.17 0.20 0.17 0.21 0.19 0.17 0.20 0.15 0.19 0.20 0.20 0.23 0.22 0.30 0.30 0.31 0.32 0.28 0.26 0.24 0.22 0.27 0.20 0.20 0.19 0.15 0.14 0.15 0.17 0.19 0.19 0.20 0.20 0.17 0.15 0.16 0.16 0.16 0.16 0.16 0.16 0.16 0.13 0.13 0.14 0.12 0.09 0.12 0.19 0.20 0.19 0.19 0.19 0.18 0.17 0.17 0.17 0.15 0.16 0.15 0.14 0.13 0.12 0.11
0.16 0.19 0.17 0.17 0.20 0.17 0.12 0.13 0.11 0.11 0.12 0.12 0.12 0.12 0.14 0.17 0.20 0.20 0.17 0.16 0.21 0.19 0.18 0.17 0.19 0.22 0.21 0.23 0.20 0.22 0.23 0.20 0.18 0.23 0.23 0.23 0.23 0.30 0.30 0.30 0.31 0.26 0.29 0.29 0.29 0.31 0.20 0.19 0.17 0.13 0.10 0.09 0.08 0.08 0.09 0.11 0.13 0.16 0.16 0.16 0.16 0.15 0.14 0.14 0.12 0.14 0.11 0.13 0.13 0.11 0.10 0.14 0.17 0.18 0.17 0.17 0.16 0.16 0.16 0.16 0.16 0.16 0.15 0.13 0.12 0.11 0.10 0.10
0.12 0.09 0.13 0.14 0.16 0.16 0.16 0.18 0.14 0.12 0.11 0.11 0.11 0.13 0.15 0.13 0.18 0.21 0.22 0.20 0.23 0.23 0.22 0.21 0.23 0.24 0.22 0.21 0.20 0.20 0.20 0.24 0.21 0.20 0.22 0.22 0.24 0.26 0.27 0.28 0.27 0.26 0.27 0.28 0.27 0.26 0.19 0.19 0.18 0.15 0.12 0.10 0.11 0.13 0.17 0.17 0.16 0.13 0.14 0.14 0.14 0.15 0.16 0.15 0.14 0.11 0.09 0.11 0.10 0.11 0.11 0.11 0.13 0.14 0.14 0.14 0.15 0.14 0.14 0.15 0.15 0.14 0.13 0.12 0.11 0.10 0.10 0.10
0.16 0.11 0.12 0.10 0.15 0.15 0.14 0.16 0.14 0.14 0.12 0.15 0.12 0.15 0.14 0.15 0.17 0.19 0.24 0.18 0.23 0.22 0.23 0.22 0.22 0.20 0.21 0.21 0.19 0.19 0.21 0.21 0.23 0.22 0.21 0.21 0.22 0.23 0.26 0.26 0.25 0.26 0.27 0.26 0.25 0.21 0.17 0.13 0.14 0.13 0.12 0.13 0.13 0.14 0.15 0.16 0.13 0.13 0.12 0.12 0.13 0.14 0.14 0.13 0.10 0.09 0.12 0.10 0.06 0.11 0.12 0.10 0.11 0.12 0.13 0.13 0.14 0.14 0.14 0.14 0.13 0.13 0.12 0.11 0.10 0.10 0.10 0.10
0.12 0.16 0.17 0.17 0.13 0.12 0.14 0.14 0.17 0.16 0.18 0.17 0.15 0.18 0.16 0.16 0.17 0.16 0.21 0.23 0.24 0.25 0.19 0.21 0.23 0.24 0.23 0.20 0.20 0.18 0.19 0.19 0.20 0.17 0.20 0.20 0.20 0.21 0.21 0.24 0.22 0.23 0.24 0.21 0.21 0.15 0.11 0.10 0.12 0.12 0.10 0.11 0.12 0.13 0.14 0.13 0.12 0.12 0.11 0.11 0.11 0.13 0.12 0.10 0.11 0.12 0.11 0.09 0.07 0.10 0.11 0.09 0.10 0.12 0.13 0.14 0.14 0.14 0.13 0.13 0.13 0.12 0.11 0.10 0.09 0.09 0.09 0.09
0.17 0.17 0.17 0.22 0.14 0.17 0.17 0.17 0.19 0.17 0.17 0.17 0.17 0.18 0.16 0.17 0.16 0.19 0.19 0.19 0.20 0.21 0.22 0.17 0.20 0.22 0.22 0.23 0.21 0.18 0.18 0.14 0.14 0.18 0.18 0.18 0.18 0.18 0.16 0.19 0.21 0.21 0.18 0.17 0.15 0.13 0.10 0.09 0.10 0.10 0.09 0.09 0.10 0.11 0.12 0.11 0.11 0.11 0.11 0.11 0.12 0.11 0.11 0.11 0.11 0.12 0.12 0.10 0.11 0.11 0.10 0.10 0.11 0.13 0.14 0.14 0.15 0.14 0.14 0.14 0.12 0.10 0.09 0.09 0.09 0.09 0.08 0.08
0.15 0.15 0.14 0.19 0.18 0.17 0.18 0.18 0.17 0.17 0.16 0.18 0.15 0.17 0.18 0.17 0.17 0.19 0.21 0.20 0.17 0.19 0.24 0.19 0.20 0.22 0.22 0.21 0.20 0.16 0.17 0.17 0.17 0.15 0.18 0.18 0.17 0.17 0.16 0.16 0.15 0.16 0.15 0.12 0.11 0.12 0.09 0.07 0.10 0.09 0.07 0.07 0.09 0.10 0.11 0.10 0.10 0.09 0.11 0.12 0.12 0.12 0.12 0.12 0.12 0.12 0.11 0.10 0.11 0.10 0.10 0.09 0.13 0.15 0.14 0.15 0.14 0.14 0.13 0.11 0.10 0.09 0.09 0.09 0.09 0.08 0.08 0.08
0.20 0.21 0.19 0.16 0.14 0.16 0.18 0.17 0.16 0.16 0.15 0.17 0.16 0.17 0.18 0.18 0.18 0.20 0.20 0.25 0.20 0.19 0.21 0.19 0.21 0.20 0.21 0.20 0.18 0.17 0.20 0.19 0.19 0.19 0.19 0.18 0.13 0.17 0.14 0.14 0.17 0.11 0.11 0.10 0.10 0.10 0.09 0.07 0.09 0.07 0.05 0.05 0.08 0.09 0.09 0.10 0.10 0.09 0.10 0.11 0.11 0.11 0.10 0.11 0.11 0.12 0.11 0.09 0.10 0.10 0.09 0.09 0.13 0.14 0.14 0.14 0.13 0.12 0.11 0.09 0.09 0.09 0.09 0.09 0.08 0.08 0.08 0.08
0.26 0.28 0.26 0.18 0.14 0.17 0.16 0.18 0.18 0.17 0.14 0.18 0.18 0.18 0.17 0.18 0.20 0.22 0.18 0.23 0.25 0.24 0.23 0.21 0.20 0.18 0.17 0.16 0.15 0.17 0.21 0.21 0.21 0.22 0.22 0.21 0.19 0.17 0.17 0.16 0.15 0.12 0.10 0.09 0.11 0.08 0.08 0.07 0.06 0.06 0.04 0.04 0.07 0.08 0.07 0.08 0.08 0.08 0.08 0.09 0.11 0.12 0.13 0.13 0.13 0.13 0.12 0.12 0.09 0.08 0.09 0.12 0.13 0.13 0.12 0.12 0.12 0.11 0.10 0.09 0.09 0.09 0.09 0.09 0.08 0.08 0.08 0.07
Wind_Speed
8 8 9 9 9 9 9 9 8 8 8 9 9 9 9 9 10 10 10 10 10 10 10 10 10 10 11 11 11 11 11 10 10 10 10 10 11 11 12 12 13 13 13 13 13 13 14 14 14 14 14 15 15 16 16 16 16 16 16 17 18 18 18 18 18 18 18 18 18 18 18 17 17 18 19 18 18 18 19 19 20 20 20 21 21 20 19 19
9 9 9 9 10 9 9 9 8 9 9 9 9 9 10 10 10 10 10 10 9 9 9 10 10 10 10 10 11 11 10 10 10 9 9 10 10 11 12 12 12 13 13 13 13 13 13 14 15 14 14 15 15 16 16 16 16 16 16 18 19 18 18 18 18 19 19 19 18 18 19 18 18 18 19 19 19 19 19 21 21 22 21 21 21 20 20 20
9 9 9 9 9 9 8 8 8 9 9 9 9 9 10 10 10 10 9 9 9 9 9 9 9 10 10 10 11 11 10 10 9 9 9 10 11 12 12 12 13 13 13 13 13 13 14 14 15 14 15 15 16 16 16 17 17 17 17 18 20 19 19 20 20 20 20 20 19 18 19 19 19 19 19 20 20 20 20 21 22 23 23 22 22 22 22 21
9 8 8 8 8 8 8 8 8 8 9 9 9 9 9 9 9 9 9 9 9 9 9 9 9 10 10 10 11 11 10 9 9 10 10 11 12 13 13 13 13 13 13 14 14 14 14 14 14 15 15 15 16 16 16 17 17 18 17 19 19 18 19 20 21 21 21 20 19 19 18 19 20 20 20 20 21 21 21 23 23 25 25 23 23 23 23 22
7 7 7 7 7 7 7 7 7 8 8 8 9 9 9 9 9 8 8 8 8 8 9 9 10 10 10 11 11 11 10 9 10 11 11 12 13 13 13 14 14 14 13 14 14 14 14 15 15 15 15 16 16 16 17 18 17 18 19 19 19 18 19 20 20 21 21 20 19 19 18 19 19 19 19 19 20 23 24 26 26 27 27 25 24 23 23 22
6 6 6 6 6 6 6 6 7 7 8 8 8 8 8 8 8 8 8 9 9 9 10 10 11 11 11 12 12 11 10 10 11 12 12 13 13 13 13 13 14 14 13 14 14 14 15 15 15 15 15 16 16 17 18 18 18 19 20 20 19 20 20 20 20 20 20 19 19 20 19 19 18 18 19 17 20 24 25 25 26 26 26 24 23 23 23 22
7 7 6 6 6 6 6 6 7 7 8 8 9 9 9 9 9 9 9 10 10 10 11 11 12 12 12 12 12 11 10 12 12 12 13 13 13 13 13 13 14 14 14 15 15 15 15 15 16 16 15 16 17 18 18 18 18 19 20 20 20 21 21 21 21 21 21 20 20 20 19 19 19 20 19 19 22 24 23 23 23 23 23 22 22 22 22 22
7 7 7 7 7 7 7 7 7 8 8 9 9 10 10 10 10 10 11 11 11 12 12 12 12 12 12 12 12 12 11 12 12 12 13 13 14 14 14 14 14 15 15 15 15 15 15 16 16 16 16 17 18 17 18 19 19 19 21 20 20 21 22 22 22 22 21 21 21 19 19 21 22 21 20 21 23 22 22 22 21 20 19 19 20 20 21 21
7 7 7 7 7 7 7 8 8 8 9 9 10 10 10 11 11 11 11 12 12 13 13 13 13 13 13 12 11 12 12 11 12 13 13 13 14 14 15 15 15 15 15 15 15 15 16 16 17 17 17 18 18 18 18 19 20 20 20 20 20 21 22 22 22 22 21 21 20 19 19 21 23 22 20 22 23 21 21 19 19 18 16 17 17 18 19 20
7 7 7 7 7 8 8 8 9 9 10 10 10 11 11 11 12 12 12 12 13 13 14 14 14 13 13 12 11 12 12 12 13 13 14 14 15 15 15 15 15 15 15 16 16 15 16 16 17 17 17 17 17 18 18 18 20 19 19 20 20 21 22 21 21 21 20 21 20 19 19 21 22 21 22 24 23 21 19 17 17 16 15 16 16 17 17 18
7 7 7 7 8 8 8 9 10 10 10 11 11 11 12 12 12 13 13 13 13 14 14 14 13 13 13 13 11 12 13 13 14 14 14 15 16 16 16 16 16 16 16 16 17 17 17 17 16 16 18 18 17 18 19 19 19 19 19 20 21 21 20 20 20 20 20 20 19 17 18 20 20 20 23 24 22 20 17 15 15 14 14 15 15 15 16 16
7 7 8 8 8 9 9 10 10 11 11 12 12 12 13 13 14 14 14 14 14 14 14 13 13 13 13 13 13 13 14 14 14 15 15 16 16 17 16 16 16 16 16 16 17 18 17 17 17 17 18 18 18 18 19 19 18 19 19 20 21 20 19 20 20 21 19 19 19 17 18 20 20 21 23 23 21 18 15 14 15 14 14 14 13 14 15 15
8 8 8 8 9 9 10 11 11 11 12 12 13 13 14 14 15 15 15 15 15 14 14 13 13 13 13 14 14 14 14 14 15 15 16 17 17 16 16 16 16 16 17 17 18 18 18 18 17 18 18 17 18 18 18 18 18 19 18 19 20 20 20 20 20 20 18 18 20 18 19 20 21 21 21 20 20 16 13 14 14 14 14 14 14 14 14 15
8 9 9 9 10 10 11 12 12 13 13 14 14 14 15 15 15 15 15 15 14 14 13 13 13 13 14 14 15 14 14 14 15 16 17 17 17 16 16 17 17 17 17 17 18 18 17 18 17 17 18 17 18 17 18 18 18 19 18 18 19 19 19 19 18 18 17 18 19 18 18 20 20 20 20 19 19 14 13 15 15 15 15 15 15 15 16 16
9 9 10 10 11 12 12 13 14 14 15 15 15 15 15 16 15 15 14 14 14 13 13 14 14 14 14 15 15 14 14 14 15 17 17 17 17 17 17 18 18 18 17 17 18 17 17 17 16 16 17 17 17 17 18 19 18 18 18 19 18 18 19 19 18 18 18 18 17 16 18 19 19 20 19 19 18 13 13 16 16 16 17 17 17 17 17 18
10 10 11 12 12 13 14 14 15 15 16 16 16 16 16 16 15 14 14 14 13 13 14 14 14 14 14 14 14 14 15 15 17 17 17 17 17 17 18 18 17 17 17 17 17 17 17 16 16 16 16 16 16 16 17 18 18 18 17 19 18 18 18 18 17 18 18 18 18 17 18 19 20 20 20 19 19 15 14 17 17 17 18 18 19 19 19 19
11 12 12 13 13 14 15 15 16 16 16 16 16 16 16 15 15 14 14 13 13 14 14 14 14 14 14 14 14 15 16 17 17 17 17 17 16 17 18 17 17 17 17 17 17 16 17 16 16 17 16 16 16 16 17 18 19 18 17 18 18 18 18 18 17 18 18 16 17 17 17 19 21 21 20 20 20 17 16 18 19 19 19 19 19 19 19 19
12 13 13 14 14 15 16 16 17 17 17 17 16 16 16 15 14 14 14 14 14 15 14 13 14 14 14 15 15 16 17 17 17 16 16 17 16 17 17 17 17 17 16 16 17 16 16 16 15 16 17 17 17 15 17 19 18 18 18 18 18 18 18 19 19 20 18 16 17 17 17 19 20 20 20 20 20 18 17 19 19 19 19 19 19 19 19 19
14 14 14 14 15 15 16 17 18 17 17 16 16 16 15 15 15 14 14 15 15 14 14 15 15 13 14 15 15 16 17 16 16 16 17 18 18 17 17 17 17 16 16 16 16 16 16 16 15 16 17 18 17 17 18 19 18 18 18 18 18 19 20 19 19 20 17 16 19 19 18 19 19 20 20 20 20 18 18 19 19 19 19 18 18 18 18 18
14 15 15 15 16 16 17 18 18 18 17 16 16 16 15 15 15 15 15 15 14 14 14 15 14 13 14 15 15 16 16 15 15 16 18 18 18 18 17 17 16 15 15 16 16 16 15 16 17 17 17 18 18 18 18 18 17 18 18 18 19 19 20 20 19 20 18 17 19 19 17 18 19 20 20 20 19 18 18 19 19 19 19 18 18 18 18 18
15 16 16 16 17 17 18 19 19 18 17 16 16 15 15 15 15 15 17 16 14 14 14 14 14 13 14 14 15 16 16 15 15 17 18 19 18 17 17 16 15 16 16 16 16 16 15 16 18 18 18 18 18 18 17 17 17 18 18 18 19 19 20 20 19 21 20 18 19 19 17 18 19 19 20 19 19 19 19 19 19 19 18 18 18 18 18 18
16 17 17 17 18 18 18 19 19 18 17 17 16 15 15 15 15 16 16 15 15 14 14 14 13 13 14 14 15 16 16 16 17 18 19 19 17 16 16 15 15 16 16 16 16 17 17 17 19 18 17 16 16 16 16 17 17 18 18 18 19 20 19 19 19 20 20 18 19 19 17 18 19 18 18 18 18 19 19 19 18 18 18 18 18 18 18 18
17 18 18 18 18 19 19 19 18 17 17 16 16 15 15 15 15 15 15 14 15 14 13 13 12 13 14 14 15 16 15 15 17 18 19 18 17 16 15 14 14 15 16 16 16 16 17 18 18 17 16 16 17 17 16 17 18 18 18 18 20 20 19 19 19 19 19 18 18 18 17 18 19 18 18 18 18 18 18 18 18 17 17 18 18 18 18 18
18 19 19 19 19 19 19 19 17 17 17 16 16 16 15 15 15 15 14 14 14 14 13 12 12 13 14 14 16 16 15 15 16 17 18 17 16 15 14 14 14 15 16 16 14 15 18 18 17 16 16 17 17 17 17 17 19 19 19 19 19 20 19 19 19 18 18 18 18 16 17 19 19 18 19 19 19 19 19 18 18 18 18 18 18 18 18 19
19 19 19 19 19 19 19 17 16 17 17 16 16 16 15 15 15 14 14 13 13 13 12 12 12 13 14 15 17 17 15 15 15 16 17 16 15 15 14 14 15 15 15 15 15 16 18 17 16 16 16 16 16 18 18 18 19 20 20 20 19 19 18 17 17 18 17 19 21 19 18 20 20 19 20 21 20 20 20 19 19 20 19 19 19 19 19 19
19 19 19 19 19 20 18 15 16 17 16 16 16 16 15 15 15 14 14 12 11 12 12 12 12 13 15 16 17 17 14 14 15 16 16 15 15 15 15 15 15 15 15 15 16 16 16 16 16 16 16 16 17 19 20 18 18 20 19 19 18 16 15 16 18 18 18 19 21 21 20 20 21 22 21 21 21 21 22 21 21 21 21 20 20 20 20 20
19 19 19 19 19 18 16 15 16 17 16 17 17 16 15 15 14 14 13 11 11 11 12 13 13 14 16 17 17 15 13 15 15 14 15 16 16 15 15 16 15 15 15 15 16 16 16 17 17 16 16 17 18 19 19 17 17 19 19 17 17 16 16 18 19 20 20 20 20 21 21 21 23 24 23 22 21 22 22 22 22 22 21 21 20 20 21 21
19 19 18 18 18 17 15 15 17 17 17 17 16 15 15 14 14 13 11 10 11 12 12 14 13 15 17 16 15 13 13 15 14 14 16 15 16 15 15 15 15 16 16 16 17 17 17 17 17 17 18 18 19 19 19 17 18 19 18 17 18 18 18 19 19 21 21 21 22 22 22 22 24 23 22 23 22 22 23 23 23 22 21 21 21 21 21 22
19 18 18 18 17 16 16 16 17 17 17 16 15 15 14 14 14 13 11 10 12 12 12 14 14 16 17 15 14 14 13 14 14 15 16 15 16 16 15 16 14 15 17 16 16 18 17 17 18 18 18 18 19 19 18 18 19 19 18 18 19 19 19 20 20 21 21 22 24 24 23 22 23 22 22 23 23 23 23 23 23 22 22 22 22 22 22 23
19 18 18 17 16 16 16 17 17 17 17 16 15 14 14 13 13 12 11 11 12 13 13 13 14 15 17 14 14 15 13 14 15 16 16 16 17 17 15 16 15 15 17 17 17 18 19 19 19 18 18 18 18 18 18 18 19 19 18 19 20 20 21 21 21 20 20 22 23 23 22 22 22 22 23 23 24 23 22 23 23 22 22 22 22 22 23 24
18 18 17 16 15 16 16 17 17 16 16 15 14 14 13 13 12 10 10 12 12 13 13 14 14 14 14 13 13 15 14 15 16 16 16 17 18 19 17 17 18 17 18 18 18 20 20 19 19 18 18 18 18 18 19 19 19 18 19 19 20 22 21 21 21 19 19 22 22 21 21 21 22 22 22 23 23 21 21 22 22 22 22 22 22 23 23 24
18 17 16 15 15 16 16 16 16 16 15 14 14 14 13 12 12 10 12 13 12 12 13 13 14 14 14 13 13 15 15 16 17 16 16 17 17 18 18 18 19 19 19 20 20 20 19 18 18 17 17 17 17 18 19 19 18 18 19 19 19 20 19 19 19 18 19 20 20 19 19 19 21 21 21 21 20 20 20 20 20 21 21 22 23 24 24 25
18 16 15 15 16 16 16 16 15 15 15 14 14 13 12 11 11 11 12 13 12 13 13 13 14 14 14 13 14 16 16 16 17 17 17 17 17 18 19 19 19 19 19 20 19 19 17 17 16 16 17 17 17 17 18 18 18 19 18 17 16 16 16 19 19 18 19 19 18 19 18 19 19 19 20 19 19 19 19 19 20 21 22 23 23 24 25 26
17 15 14 15 16 16 16 15 15 14 14 14 13 13 12 11 11 11 12 13 12 13 13 13 14 14 13 14 15 16 16 17 18 18 18 18 18 19 20 20 19 18 18 18 17 16 16 16 17 17 18 18 18 17 16 17 18 18 16 15 15 15 16 18 18 18 19 19 19 19 18 19 19 18 19 19 19 19 19 19 20 21 22 23 24 25 26 27
16 14 14 15 15 16 16 15 15 15 14 14 13 12 11 11 11 11 12 13 13 14 14 13 14 14 14 15 16 17 17 18 19 18 19 18 18 19 19 19 18 17 17 17 17 16 15 17 18 18 18 18 17 17 16 17 17 17 16 16 17 16 16 18 18 18 19 19 20 19 18 19 19 19 19 19 19 20 20 20 20 21 22 23 24 26 26 28
15 14 14 15 15 17 16 15 15 15 14 13 13 12 11 11 11 11 12 13 13 14 14 14 14 14 16 17 17 18 18 18 19 18 18 18 17 17 17 17 17 18 17 17 18 17 16 18 18 18 18 16 16 17 17 17 17 17 17 17 18 17 16 17 19 19 18 19 19 18 17 18 19 20 20 19 19 19 20 21 21 21 22 23 25 26 27 28
14 13 13 15 16 17 17 16 15 14 13 12 11 11 11 11 11 11 12 13 13 13 14 14 15 15 16 17 18 19 19 18 18 17 17 16 16 17 17 17 17 18 18 18 18 17 17 19 19 17 16 17 17 18 18 18 17 18 18 18 18 18 16 17 18 19 18 18 20 18 18 19 19 19 20 19 19 19 21 22 22 22 23 24 26 27 28 29
13 13 13 15 17 18 16 15 15 13 12 12 11 11 11 11 11 12 12 13 13 13 14 14 15 16 16 16 17 19 19 18 18 17 16 16 16 16 17 17 18 18 19 19 18 18 17 19 19 16 16 19 19 18 19 19 18 18 17 18 17 17 17 18 18 18 18 19 20 19 18 19 19 19 19 20 20 20 21 22 22 23 24 25 27 29 29 30
13 13 14 16 18 17 15 14 14 13 12 12 11 11 11 12 12 12 13 13 13 14 14 15 16 16 16 16 16 18 17 17 17 17 16 16 17 16 16 18 19 20 21 19 18 19 18 17 18 18 18 20 20 18 19 20 19 18 17 18 17 15 16 18 18 17 18 19 20 20 20 19 20 20 20 20 20 20 21 22 23 25 26 26 29 30 31 32
14 13 14 17 18 16 14 13 13 13 12 11 10 11 11 12 12 13 13 14 14 14 15 15 16 16 16 15 15 16 16 16 16 17 16 17 17 17 17 18 19 21 22 20 18 19 18 17 18 20 20 19 19 19 18 18 18 17 17 18 18 18 18 19 18 17 17 18 18 19 21 19 19 20 20 19 20 20 21 23 24 26 27 28 30 32 32 33
14 13 14 17 18 15 13 13 13 12 11 11 11 11 12 12 13 14 14 14 15 15 15 14 14 14 15 15 15 16 16 16 16 17 17 18 18 18 19 19 20 21 21 20 19 19 18 17 19 21 20 19 18 18 17 16 16 16 17 18 19 19 18 18 18 17 17 17 17 18 21 20 19 20 19 19 20 21 22 23 25 27 28 29 32 33 33 34
13 13 15 18 17 13 12 13 13 12 11 12 12 12 13 13 13 14 15 15 15 15 14 13 13 14 14 14 15 16 16 17 17 17 17 18 18 18 20 20 20 20 19 19 19 19 18 17 18 20 20 19 18 18 16 15 15 16 18 19 19 18 17 16 17 18 19 19 18 18 20 20 19 19 19 19 21 21 22 24 26 28 30 31 33 33 33 35
13 13 15 18 16 12 12 13 13 13 12 12 12 12 13 13 13 14 15 14 14 14 14 14 14 14 14 15 15 16 16 17 17 17 18 18 18 18 19 20 20 19 18 18 18 19 18 17 18 20 19 18 18 17 16 16 17 18 19 19 18 18 18 17 17 19 19 19 19 18 19 20 19 20 20 20 22 23 24 26 28 30 31 33 34 34 35 37
13 13 15 17 15 12 12 12 12 12 12 12 12 13 13 12 13 13 13 14 14 13 13 14 14 15 15 15 16 16 17 17 17 17 17 18 18 18 19 19 19 19 18 17 18 19 18 17 18 19 19 19 18 18 18 18 18 18 19 19 18 18 19 19 18 19 19 18 18 17 19 20 19 21 21 22 24 26 27 28 30 31 33 34 35 35 36 37
13 13 14 16 15 13 11 11 10 10 11 11 12 12 13 12 12 13 12 13 14 13 13 14 14 15 15 16 16 17 18 18 17 17 18 19 19 19 19 19 18 18 18 17 18 18 18 17 17 17 17 18 18 18 19 20 19 19 19 20 20 19 19 19 19 18 18 18 19 18 19 21 21 22 24 25 26 28 29 30 31 32 34 36 36 37 37 38
13 13 13 14 14 13 12 11 11 10 10 11 11 12 12 12 12 13 12 13 14 14 14 14 15 15 16 17 17 17 18 18 17 17 18 19 19 19 19 18 17 18 18 18 18 18 17 18 18 16 15 17 18 18 20 20 20 20 21 22 21 20 20 18 18 18 18 19 20 19 20 23 23 24 26 28 29 30 31 32 33 34 36 37 37 37 38 39
12 12 12 12 12 13 13 13 13 11 10 10 11 12 13 13 13 13 13 13 14 14 14 15 16 16 17 17 17 17 18 18 18 18 18 19 18 18 18 17 17 19 19 17 18 18 17 18 18 17 17 18 18 19 20 19 19 20 21 21 21 21 20 18 18 18 18 19 20 20 22 25 25 25 27 29 30 31 32 33 35 37 38 38 38 38 40 40
12 11 11 11 11 11 12 13 13 13 12 12 11 11 13 13 13 13 13 14 14 15 15 16 17 18 17 17 17 18 19 18 18 18 17 17 18 18 18 16 17 20 19 18 19 17 16 17 18 17 18 19 19 19 19 18 19 19 20 20 21 21 20 18 17 18 18 20 22 24 25 26 27 27 29 30 30 32 34 35 37 39 39 38 38 39 40 41
12 11 12 12 11 11 11 12 12 13 13 13 12 12 13 13 14 13 14 15 16 17 16 16 18 19 19 18 17 17 18 18 17 17 16 16 16 16 17 16 17 19 20 18 18 17 16 17 18 18 19 19 19 20 19 18 19 19 20 20 20 20 20 19 19 20 21 22 24 26 28 28 27 27 29 30 31 33 36 37 39 40 39 38 39 40 40 42
12 11 11 12 12 12 12 12 12 12 13 13 13 13 13 13 14 14 15 16 16 17 18 17 18 19 19 19 17 16 17 16 15 16 15 15 16 16 16 15 16 19 20 18 18 19 19 19 19 19 20 20 20 21 20 19 19 19 19 20 21 21 20 20 21 22 23 25 26 27 29 29 27 27 30 32 34 36 37 38 39 39 38 38 39 40 41 43
13 12 11 12 12 13 13 12 12 12 13 14 13 13 14 14 15 14 15 16 16 16 17 17 16 17 18 18 18 17 16 15 14 15 14 15 16 16 16 16 16 18 19 18 19 20 21 21 21 22 22 21 21 22 21 21 20 19 20 21 22 21 21 22 23 23 25 27 28 29 29 28 27 30 32 34 36 37 37 38 40 39 38 38 40 41 42 44
13 13 13 13 12 13 13 13 13 13 13 13 14 14 15 15 15 15 15 16 17 17 17 16 16 16 17 18 18 17 17 16 15 16 16 15 16 17 16 17 17 18 18 18 19 21 21 22 23 23 23 23 23 24 23 22 20 19 20 22 22 22 22 23 24 25 26 27 28 29 28 28 30 33 34 35 37 37 38 40 40 39 38 39 41 42 44 45
Wind_Direction
311 307 305 304 302 298 296 296 297 299 300 302 303 304 304 306 308 309 309 308 305 303 302 301 300 298 298 299 299 299 296 289 287 285 278 275 275 277 279 280 281 283 284 283 281 274 272 272 272 274 271 269 270 268 267 268 265 265 266 266 267 268 267 267 267 267 270 274 273 271 267 264 270 268 265 268 269 269 266 266 267 268 269 270 269 267 263 260
310 306 304 305 304 300 296 295 297 300 301 302 303 304 304 305 308 309 309 309 308 306 305 305 303 301 302 302 302 301 298 292 289 285 279 279 281 282 282 283 283 284 285 284 282 276 272 272 273 276 274 271 271 270 268 269 267 267 268 268 269 269 269 269 266 266 269 273 272 272 269 265 268 269 267 267 268 269 266 267 269 269 270 271 269 265 262 260
308 306 305 306 306 303 299 297 298 301 303 305 305 306 306 306 308 310 311 311 311 309 308 308 306 304 304 304 304 302 299 295 290 285 281 285 286 286 285 283 283 284 285 284 281 277 273 272 273 275 276 273 273 272 270 270 270 269 270 271 272 270 272 272 268 268 270 274 274 273 271 267 269 269 267 266 266 268 268 269 271 272 274 273 269 265 263 261
311 309 309 310 309 307 303 301 301 303 306 308 310 310 310 309 310 311 312 312 311 311 311 310 308 307 306 306 306 302 300 295 287 283 284 289 290 288 286 283 283 283 284 284 281 278 275 274 276 277 276 275 276 274 271 271 271 271 270 271 273 272 274 274 271 271 272 274 273 271 271 269 269 269 269 269 268 269 272 273 273 274 276 274 268 265 263 262
326 324 322 319 316 313 309 306 305 307 310 313 314 315 314 313 313 313 314 313 312 312 312 312 310 308 307 306 304 302 301 293 285 285 288 292 292 290 287 284 284 283 283 284 281 280 277 275 278 279 276 276 276 276 273 272 272 272 272 272 272 271 274 275 274 274 273 273 272 270 271 269 269 271 275 276 273 273 275 276 274 272 273 272 268 265 265 265
346 343 339 333 328 323 319 316 315 315 315 317 318 317 317 316 314 314 313 312 311 311 311 311 310 308 306 304 303 302 299 289 286 288 291 293 293 291 289 287 285 284 285 285 283 282 279 278 278 276 277 277 274 274 274 274 273 273 276 276 273 271 272 275 276 275 273 272 271 270 270 270 269 271 276 282 280 279 279 276 274 273 272 271 268 266 266 265
350 348 346 343 341 336 331 327 323 321 320 320 320 319 318 315 312 311 309 308 308 307 307 307 307 307 304 303 302 302 297 288 287 290 291 293 293 292 290 290 287 287 288 287 286 283 280 280 276 274 278 279 275 273 275 277 275 273 276 277 274 272 272 274 276 275 272 271 271 271 272 273 272 270 275 287 287 284 282 278 276 276 274 271 268 266 265 263
349 349 349 348 347 343 339 334 329 326 323 322 320 318 316 313 310 307 306 304 304 303 303 303 304 305 305 303 302 302 297 289 289 291 293 294 294 293 291 292 291 290 290 288 287 283 281 280 276 274 278 278 274 275 276 278 278 273 273 276 274 273 273 274 275 274 272 272 272 273 277 278 277 273 275 288 291 286 283 280 278 277 276 274 269 268 266 264
352 351 350 350 348 345 342 338 333 328 324 322 320 317 314 312 309 306 304 302 302 301 301 301 302 303 304 304 305 303 295 290 292 293 295 296 296 296 292 291 292 291 289 289 288 284 282 281 278 276 278 277 275 276 277 276 277 273 272 274 274 275 276 276 275 274 274 273 271 274 281 284 281 274 274 289 291 284 280 279 278 278 278 276 273 271 270 267
354 353 351 350 348 346 343 339 334 329 325 322 319 317 314 312 309 306 304 303 302 301 300 300 300 302 302 303 304 300 293 293 295 295 297 298 298 298 295 291 291 292 290 289 289 285 284 282 280 279 279 280 276 277 277 274 276 275 273 275 275 277 278 277 277 276 276 273 271 272 278 287 287 275 274 286 287 279 279 281 280 280 280 278 275 274 273 271
357 356 353 350 347 344 341 338 334 329 326 322 319 317 316 314 312 309 306 304 302 301 301 300 299 300 300 301 298 293 292 294 295 295 298 300 299 298 295 291 290 292 291 291 289 285 285 282 281 282 282 281 279 279 278 275 278 278 277 278 279 281 280 281 282 279 278 274 271 268 274 288 291 279 277 282 281 277 278 281 283 282 280 278 276 276 275 274
359 356 352 348 344 341 338 335 332 328 325 323 320 318 317 315 313 311 308 305 303 300 300 299 299 298 301 302 295 291 293 294 293 295 297 300 300 297 293 291 290 290 289 291 290 286 286 283 281 283 282 281 281 281 279 278 280 280 280 280 283 286 283 286 285 280 278 275 271 269 275 285 286 280 281 279 275 277 279 282 282 280 278 277 278 278 278 278
353 350 348 344 340 337 334 332 329 327 325 323 320 318 317 315 313 311 308 306 304 300 299 298 298 299 301 301 296 294 295 295 294 295 297 299 299 296 295 293 292 290 289 289 290 289 287 284 284 283 282 282 281 281 280 282 282 280 282 281 283 286 284 285 284 279 278 278 276 271 272 278 280 282 283 278 274 277 282 281 278 276 276 277 278 280 280 281
346 343 341 337 335 332 330 329 327 325 323 321 320 317 315 314 313 311 309 307 305 302 299 298 298 300 301 298 297 298 297 296 298 299 299 300 299 296 294 296 294 291 289 288 289 290 288 287 287 285 284 284 282 281 284 287 285 281 283 283 282 280 280 283 284 281 277 279 280 271 271 275 277 285 285 280 277 275 278 278 276 275 275 276 278 280 281 282
341 338 335 333 331 329 328 328 325 324 323 321 319 316 315 314 313 311 310 309 308 304 302 300 299 300 301 300 299 300 299 300 302 301 300 300 301 296 295 297 295 292 290 289 289 289 288 288 288 287 285 285 285 284 285 287 286 284 282 281 282 277 276 280 283 284 275 277 286 275 270 273 274 283 284 280 278 274 275 278 278 278 277 278 279 280 282 282
337 334 332 331 329 329 328 327 326 324 323 321 319 317 316 315 313 312 310 310 309 307 306 303 300 301 301 300 300 302 302 303 303 302 301 301 300 297 297 297 296 294 291 289 290 289 289 290 289 287 286 285 286 285 286 287 285 285 280 277 279 276 276 278 281 289 280 275 288 281 270 273 275 280 282 279 278 276 276 278 279 280 280 281 281 282 282 282
334 331 330 329 328 328 328 327 326 324 323 321 320 319 318 316 314 312 311 311 309 308 307 303 303 303 300 300 301 303 304 303 304 303 302 302 300 299 300 298 296 296 293 291 291 290 291 291 287 286 288 287 285 285 285 285 283 284 283 279 279 276 277 277 276 288 290 280 283 282 274 274 275 279 281 280 279 279 279 280 281 282 282 282 282 283 282 282
331 329 328 328 327 327 327 326 325 324 322 320 319 319 318 316 315 313 312 311 309 309 308 307 309 305 299 302 303 302 304 304 304 304 303 304 302 301 301 298 296 295 295 294 291 290 290 291 289 288 290 289 286 284 280 279 281 282 280 279 280 279 277 277 277 282 288 284 280 279 277 274 275 278 280 279 279 280 280 280 281 283 283 283 283 283 282 282
331 329 327 326 326 326 325 325 324 323 322 320 318 318 316 316 316 313 313 313 310 309 307 307 311 304 298 303 302 303 305 304 305 305 305 305 303 301 302 300 297 295 294 293 291 291 290 291 291 288 287 286 283 279 276 276 280 280 278 277 278 278 278 278 279 279 280 284 283 280 276 274 275 277 278 279 279 280 280 281 282 282 283 283 283 283 282 282
330 329 327 326 325 324 324 324 323 323 322 320 318 317 316 316 316 313 314 316 312 310 307 306 308 304 301 304 303 306 308 305 305 307 308 307 303 301 301 301 300 299 296 291 291 293 292 290 288 285 282 282 280 279 280 280 282 282 280 280 279 278 280 280 278 276 277 282 283 280 276 275 275 276 278 280 280 282 282 282 282 282 282 282 282 282 281 281
329 328 326 325 324 323 323 323 323 323 322 320 321 320 315 314 314 312 313 314 310 310 310 306 305 305 305 305 305 309 309 304 305 309 310 308 305 301 299 301 301 299 297 292 290 294 294 289 286 284 281 282 283 281 282 283 284 285 281 280 281 279 280 282 278 278 279 278 276 275 276 277 276 277 279 281 281 282 283 282 282 281 281 280 280 281 280 280
327 326 325 323 322 322 322 323 323 323 322 322 323 321 315 313 313 312 313 311 309 310 310 308 308 309 309 305 306 311 310 306 306 309 312 311 310 304 299 303 301 296 298 296 294 297 296 290 286 285 285 287 290 286 284 285 285 286 284 281 282 281 280 281 283 283 282 277 271 271 274 276 275 276 279 280 280 281 282 281 280 280 280 280 280 281 280 281
325 324 323 322 321 321 321 321 321 322 323 323 323 321 316 315 314 315 316 312 310 310 311 310 309 311 313 309 309 313 312 309 307 309 314 314 312 307 302 305 302 298 302 299 293 295 295 291 289 289 287 288 292 290 288 288 287 285 284 282 282 281 279 279 282 284 283 278 269 268 273 274 273 275 277 278 278 279 281 281 280 280 280 280 280 281 282 283
324 324 323 322 321 321 321 320 320 322 324 324 324 321 317 316 315 316 317 314 310 309 309 309 308 311 313 311 313 314 311 310 309 310 316 316 312 309 305 305 304 301 301 299 293 291 291 291 292 294 292 289 290 292 289 286 288 287 282 281 281 280 280 279 277 279 284 281 271 270 276 273 270 272 273 274 276 279 280 281 281 281 280 280 281 282 283 282
324 324 323 323 322 322 321 321 322 323 322 323 323 320 318 316 315 316 318 315 310 309 309 308 309 311 312 313 316 314 309 311 312 311 316 318 313 310 307 305 305 303 299 299 299 296 295 294 295 296 297 295 291 290 288 284 287 289 285 281 280 279 280 277 272 275 281 277 271 271 277 276 271 269 270 272 276 279 280 282 282 282 280 280 281 281 282 282
323 323 323 323 323 323 322 321 322 323 322 323 321 319 318 316 315 316 318 316 310 309 311 310 310 312 313 316 317 314 311 312 312 314 317 318 313 310 308 306 307 305 299 298 301 299 297 299 299 296 297 299 295 291 289 287 288 290 287 284 282 282 279 272 272 277 278 276 273 270 274 277 272 269 269 271 275 277 279 282 281 281 281 280 280 280 280 281
322 322 323 323 324 325 323 320 322 323 323 322 320 319 316 315 316 316 318 319 313 310 312 311 311 315 316 317 319 317 312 313 313 317 320 318 316 313 309 308 308 307 303 303 305 301 299 303 305 302 301 300 298 294 292 290 289 289 288 286 285 284 279 274 275 277 278 280 280 273 273 278 275 271 269 269 274 277 279 281 280 280 280 279 280 280 281 281
323 322 323 323 323 325 323 321 323 323 322 320 319 319 315 316 316 315 319 318 312 312 313 312 313 318 320 320 325 325 315 316 317 316 319 321 319 316 312 309 307 306 308 306 302 301 301 304 304 303 303 300 296 294 291 290 291 289 287 287 287 286 282 279 278 279 281 282 280 273 271 278 280 274 271 271 273 276 278 279 280 279 278 278 279 280 281 282
324 323 323 322 322 323 322 322 324 322 321 320 320 317 315 317 317 318 320 311 311 315 313 315 316 319 323 322 326 328 322 322 321 316 319 322 321 319 313 310 308 307 309 307 300 300 303 302 300 300 301 297 294 294 293 291 292 290 288 290 291 290 289 286 283 281 283 281 278 274 268 274 282 274 269 272 273 273 275 277 279 278 277 277 278 280 282 283
325 324 323 322 321 322 322 322 324 322 321 321 319 317 318 319 321 324 320 309 313 316 314 320 319 320 327 325 323 327 325 322 321 320 322 321 324 326 317 310 313 311 309 310 303 301 304 302 300 300 299 295 294 295 295 293 292 291 291 293 293 292 291 289 286 283 284 282 281 279 271 272 282 276 270 275 275 273 274 277 279 279 278 278 279 281 282 284
325 324 323 323 322 322 322 322 322 321 321 320 319 320 320 320 324 326 317 311 315 318 319 323 321 323 330 327 321 324 324 321 322 324 323 321 325 327 321 314 316 315 312 312 308 306 309 306 302 301 300 298 297 297 298 297 296 293 293 294 293 292 291 289 288 286 283 283 284 284 277 272 279 280 276 278 279 277 276 277 279 279 279 279 280 282 283 284
325 324 324 324 323 323 324 322 321 322 322 322 322 323 324 322 323 320 314 315 318 319 321 320 320 324 325 323 322 321 320 320 323 325 321 320 322 323 322 318 316 316 313 312 310 311 311 306 305 305 304 305 303 301 303 301 301 300 297 298 296 295 294 291 289 286 283 283 285 288 284 277 280 283 280 279 280 279 278 278 279 280 280 279 280 282 283 285
324 324 324 325 325 325 324 323 323 324 323 324 324 325 329 328 320 314 316 319 320 319 321 319 320 322 321 323 324 321 321 320 322 324 319 319 322 320 320 320 319 317 314 313 315 317 315 309 311 312 309 310 308 306 306 303 304 304 300 298 296 296 298 293 290 290 289 287 286 289 288 285 285 286 282 280 279 278 278 280 281 282 282 281 282 283 285 286
324 324 324 325 326 327 326 324 324 324 325 326 326 327 332 325 315 317 320 318 318 321 322 321 321 323 324 325 322 321 323 321 321 324 321 321 323 321 320 322 324 322 318 319 319 319 317 310 312 314 310 311 311 308 305 303 305 303 299 299 296 293 294 291 288 289 291 291 289 290 290 287 288 288 285 282 280 279 279 280 283 285 285 284 284 285 287 288
323 323 323 325 328 328 328 326 324 325 325 326 329 332 331 320 314 320 320 316 319 322 321 321 324 326 325 323 322 323 323 320 321 324 323 322 321 321 322 322 324 326 324 323 319 317 315 308 309 312 309 311 311 306 306 309 307 301 300 304 299 294 292 291 289 288 290 293 293 290 289 290 290 289 287 285 283 283 281 281 283 286 287 287 286 287 289 290
323 322 323 326 328 328 328 326 324 325 325 327 333 333 326 319 318 320 319 320 322 322 322 325 327 327 324 321 323 325 323 320 322 324 323 323 322 324 325 321 323 328 327 323 319 317 314 310 312 314 312 312 311 307 310 311 307 304 304 303 298 296 296 294 294 295 295 294 292 289 290 292 291 289 287 285 285 285 284 283 284 286 289 291 291 290 290 292
323 322 323 326 328 328 327 327 326 327 328 331 335 329 320 321 322 320 320 322 321 322 327 327 326 326 324 322 322 324 324 323 325 326 326 325 325 327 327 322 323 327 325 321 318 316 313 311 315 317 313 311 311 310 312 311 308 308 305 300 300 300 299 297 296 299 300 294 292 292 290 289 290 290 287 283 283 285 287 286 286 287 291 293 295 294 292 293
324 324 325 327 329 328 327 327 328 328 331 335 334 327 322 324 323 321 322 323 322 325 329 327 324 325 324 323 323 323 326 327 328 330 328 327 327 328 328 324 322 326 325 321 319 317 315 313 315 315 311 311 313 312 311 310 310 309 304 303 306 303 300 302 301 299 299 296 295 295 294 291 290 291 287 283 285 287 289 290 289 290 292 294 298 297 294 294
327 327 327 329 331 330 328 329 330 331 335 336 330 326 325 325 324 323 324 324 324 327 328 324 324 326 325 325 325 326 329 330 330 331 331 329 328 328 329 324 322 324 325 322 319 318 317 314 312 312 311 313 315 315 312 312 312 311 309 309 311 305 300 303 302 297 297 298 298 298 298 296 295 294 290 288 291 291 291 292 293 294 295 296 299 299 296 296
329 328 327 331 333 331 330 334 337 337 337 332 327 326 327 325 324 325 326 325 325 327 326 323 324 327 327 327 328 329 331 331 330 331 330 328 328 327 328 326 323 323 324 324 322 320 319 315 310 312 317 318 317 316 315 312 311 313 314 314 313 310 306 304 302 299 299 299 299 300 300 298 299 300 297 295 295 294 294 295 296 298 298 299 302 300 298 298
333 331 328 333 334 332 334 340 341 338 336 333 330 329 329 327 327 327 327 326 326 326 326 325 328 329 328 330 331 330 331 330 330 331 329 329 330 327 326 327 324 323 325 326 325 323 321 317 312 315 321 321 317 316 315 313 314 316 317 315 313 311 310 308 305 303 303 302 298 298 299 300 303 304 302 302 300 299 300 300 301 302 301 302 303 301 300 300
338 335 332 336 337 335 341 341 336 335 336 334 332 330 329 329 328 328 328 328 328 328 330 331 332 331 331 331 330 330 331 330 329 330 329 328 330 327 326 328 326 323 326 326 324 323 322 321 320 319 320 319 316 317 317 318 322 322 319 317 315 314 314 310 304 304 306 305 302 300 300 300 302 305 305 307 305 303 305 305 303 303 302 303 304 303 302 302
340 336 335 339 337 337 343 339 333 336 336 331 330 331 332 332 331 331 332 334 333 332 334 333 332 332 332 331 330 331 332 330 329 330 330 328 329 328 327 329 328 326 328 328 326 326 326 326 325 322 321 321 320 320 319 320 323 323 321 321 319 316 315 309 304 304 305 305 306 304 302 300 301 304 306 308 308 306 307 306 305 304 303 304 305 304 303 304
338 336 338 342 340 337 339 336 334 337 334 333 337 339 338 339 340 338 336 338 337 335 336 334 333 334 333 332 334 333 332 333 332 333 333 331 330 330 330 330 331 331 332 331 330 331 329 328 328 327 326 325 324 324 322 321 324 323 320 322 320 318 317 312 308 309 307 306 307 304 301 302 303 305 307 308 309 308 307 307 306 306 306 306 306 305 305 305
337 338 340 346 352 353 346 339 341 342 339 342 346 344 342 344 344 342 340 341 340 339 339 337 336 336 336 337 338 336 335 337 335 334 335 332 330 331 332 332 333 336 335 331 331 333 332 330 332 332 328 324 321 320 320 320 323 323 321 322 322 320 319 314 311 313 309 308 309 304 301 304 306 304 306 309 310 309 308 308 308 307 308 308 307 307 307 307
343 343 342 347 357 4 360 352 353 352 348 350 351 348 349 348 345 344 346 346 345 345 345 342 339 338 340 342 340 337 338 339 337 337 337 333 331 333 334 334 336 338 337 335 335 337 337 335 335 333 327 322 319 318 320 321 322 321 321 323 322 320 319 318 317 314 310 310 311 306 305 309 308 306 309 311 311 310 309 309 309 309 310 310 309 308 308 308
352 350 349 349 354 1 4 3 3 -0 356 357 356 353 353 351 348 349 351 350 349 349 348 347 345 343 341 342 341 338 337 339 340 340 337 334 334 336 336 337 341 341 340 340 340 341 342 340 339 337 331 327 325 324 324 326 324 323 323 323 324 323 323 324 321 316 314 315 312 309 311 312 310 311 312 311 311 310 310 311 310 310 311 310 309 308 309 309
359 358 357 358 359 359 1 3 6 9 7 4 4 1 358 358 357 355 352 350 350 349 347 346 346 344 340 338 340 340 340 342 343 342 340 341 342 343 343 343 345 347 348 346 345 348 349 345 342 341 336 333 333 331 330 330 328 327 327 326 326 327 328 328 322 318 319 316 310 311 314 312 311 313 313 311 312 312 311 311 311 311 311 310 309 310 310 311
9 9 5 8 10 7 4 2 7 14 13 9 9 7 4 4 2 356 351 351 349 348 349 347 343 342 342 341 344 345 345 347 348 346 347 350 350 352 352 350 349 353 356 355 352 355 355 350 347 346 342 340 339 337 335 334 331 329 330 329 328 327 328 327 321 318 319 315 311 315 316 313 312 314 313 312 313 313 312 312 312 312 312 311 311 311 311 312
18 18 15 20 20 14 12 10 12 16 14 11 12 9 6 5 1 357 355 355 351 348 350 350 344 344 348 350 353 353 349 352 355 353 356 360 360 0 2 1 358 359 3 4 0 1 2 358 355 354 350 345 343 341 339 336 332 330 330 329 329 328 327 326 323 321 320 317 316 318 316 313 315 316 314 314 315 314 314 313 313 313 312 312 312 312 313 313
27 26 26 30 23 14 15 16 17 20 15 12 12 9 7 6 2 0 360 360 359 355 353 353 350 352 356 360 2 1 357 1 6 5 8 13 13 12 12 11 9 5 7 9 6 5 6 3 1 1 357 349 346 345 340 335 334 333 331 330 330 328 326 325 324 322 321 318 318 319 317 315 316 317 316 316 316 315 314 313 313 314 313 313 313 314 314 314
30 29 29 33 27 18 18 17 18 21 17 13 13 10 9 9 7 8 8 7 7 6 3 1 1 4 7 9 11 11 11 14 17 17 21 25 25 25 22 19 17 12 9 10 8 6 6 5 2 2 358 351 349 347 341 338 338 333 330 330 328 326 328 326 323 321 321 320 319 319 318 317 318 318 317 317 316 316 315 314 314 314 314 314 315 315 315 315